Theta_e
310 310 306 307 307 308 307 309 309 311 313 311 310 311 313 316 319 321 323 324 326 329 333 336 338 337 336 335 334 335 335 336 335 335 338 339 340 341 339 332 331 330 329 330
309 306 309 309 308 309 311 308 308 309 312 312 310 309 313 316 320 322 322 325 327 329 331 335 334 332 331 333 335 335 335 337 337 334 334 337 339 339 333 332 332 331 329 328
306 307 308 308 309 310 308 309 308 307 309 310 310 308 311 314 321 324 325 326 328 329 330 332 332 334 335 333 332 332 334 337 336 336 337 337 338 334 330 329 328 328 326 326
307 310 307 311 308 310 306 308 308 308 307 302 308 299 308 310 316 321 325 326 327 329 332 332 332 330 330 329 332 333 333 332 331 333 330 330 326 324 325 324 324 324 325 323
306 308 309 309 307 309 307 310 310 309 307 306 305 303 305 310 311 317 323 325 328 329 330 328 326 327 327 329 329 328 329 328 328 328 327 324 323 322 323 321 321 321 321 320
309 313 312 311 311 310 311 310 309 308 307 301 302 303 303 308 309 315 320 323 324 324 323 324 325 325 324 326 326 327 327 326 326 324 323 321 319 318 316 315 314 313 314 314
310 310 313 315 310 312 309 307 301 299 301 299 303 303 304 309 312 316 317 320 321 322 321 321 321 322 323 323 325 324 325 323 322 321 319 318 317 317 315 314 312 312 311 312
304 302 311 314 311 309 308 306 302 293 297 300 304 300 305 311 315 317 318 319 320 321 320 320 321 322 321 323 323 323 322 319 319 318 317 317 317 313 313 313 313 312 312 313
306 304 312 313 314 311 308 307 307 302 300 300 302 304 309 312 314 314 316 317 317 318 319 319 321 322 322 322 321 320 319 318 317 316 316 315 315 314 313 314 314 313 315 314
311 305 310 313 313 313 311 310 304 305 296 293 299 300 304 309 312 312 313 314 316 318 317 319 320 321 321 321 319 319 318 316 315 315 314 314 314 314 314 314 314 314 315 315
312 311 308 310 309 308 309 308 305 305 302 298 296 301 309 312 313 312 314 316 317 318 317 317 319 321 321 320 318 318 317 315 314 314 314 313 313 314 315 314 315 315 316 315
312 313 306 306 311 314 311 307 305 303 299 301 301 302 312 314 314 315 314 316 317 318 317 317 318 320 321 320 319 318 316 314 314 314 313 313 314 314 314 314 315 315 315 316
316 309 304 305 307 311 309 308 306 307 307 301 299 302 312 313 314 315 315 314 314 316 316 317 318 319 319 320 318 317 315 314 313 313 312 313 313 313 314 315 315 315 315 315
319 309 307 300 302 307 306 307 307 307 305 303 304 305 310 312 313 315 316 314 314 315 315 316 318 319 320 320 317 315 315 314 313 312 312 313 313 314 314 315 315 315 315 314
318 309 308 307 308 308 307 307 307 306 306 304 305 306 310 313 314 315 317 314 313 313 313 316 318 318 318 317 317 316 315 314 313 311 312 313 314 315 315 315 315 316 315 315
315 310 309 306 308 308 306 307 307 307 307 307 306 307 313 315 316 315 315 314 314 313 312 316 318 317 316 316 315 315 314 313 313 311 311 312 313 314 314 314 314 315 315 314
314 311 307 303 306 306 302 307 307 308 309 309 306 310 314 313 314 315 315 315 314 313 312 316 318 317 316 316 316 315 314 314 312 311 311 312 313 313 313 314 314 314 314 314
312 311 308 304 305 296 306 314 313 310 311 312 312 312 315 316 317 317 318 317 316 313 313 318 319 318 317 317 316 316 314 312 312 311 311 312 312 312 314 314 314 314 315 314
317 313 306 303 302 304 308 311 311 310 309 314 313 313 314 316 317 316 318 317 316 314 316 320 320 318 318 317 317 315 313 312 312 312 311 311 312 311 313 313 313 314 315 314
313 315 311 305 300 297 308 313 317 315 306 315 316 315 315 316 310 314 319 318 315 316 319 321 319 318 318 317 317 315 312 312 312 312 313 312 312 312 310 311 313 313 315 314
309 308 306 302 303 306 311 315 317 303 304 317 319 318 317 315 317 319 320 316 317 318 321 322 319 318 318 319 318 314 313 313 314 312 312 312 312 311 311 311 313 312 314 314
308 307 306 304 303 300 315 315 309 317 318 323 321 321 319 319 318 318 317 316 316 317 320 320 319 318 319 319 318 314 312 315 312 311 311 312 313 310 310 311 310 312 312 313
307 311 311 311 310 314 320 318 324 323 322 321 323 322 321 319 318 317 316 316 316 316 320 321 320 318 318 319 318 314 314 314 312 312 312 312 313 313 313 313 312 310 311 311
310 312 312 310 314 314 317 320 320 322 323 323 324 323 322 320 319 317 316 315 315 317 319 321 320 318 317 318 317 316 315 315 312 311 312 313 313 311 314 314 313 312 310 311
311 311 310 311 312 313 317 320 323 322 323 322 322 323 323 322 320 318 316 315 315 318 319 320 320 319 317 317 317 316 315 314 314 313 313 313 312 313 314 314 313 313 314 306
311 313 310 310 317 318 318 322 323 322 322 323 321 320 322 323 320 318 316 315 317 318 319 319 320 320 318 317 316 316 316 315 315 312 313 312 312 313 313 314 314 298 295 293
Wind_Speed
3 3 7 5 1 8 10 12 14 8 3 13 13 17 16 12 13 5 5 7 2 3 7 5 7 7 8 11 13 12 11 11 9 6 7 7 7 7 6 7 11 10 10 10
3 4 1 4 7 12 14 15 8 11 15 15 16 16 12 16 12 11 7 6 7 7 7 10 10 10 12 12 13 13 12 10 8 5 5 4 5 4 5 4 7 10 11 11
3 4 3 4 5 9 6 7 9 16 9 8 8 14 13 11 14 13 13 9 9 9 11 11 13 11 11 13 13 13 14 12 10 11 7 6 3 3 5 7 7 8 10 10
4 5 6 9 7 4 2 3 8 15 9 5 6 5 8 11 13 14 12 12 10 10 11 11 13 14 13 13 12 13 13 13 12 12 9 11 8 7 6 6 7 8 10 10
4 6 6 8 3 2 2 4 12 8 9 5 7 4 5 5 9 12 14 12 11 10 9 11 11 12 12 12 13 12 13 13 12 12 11 9 10 7 6 7 9 9 8 9
3 1 5 4 4 2 8 8 9 4 1 2 5 3 4 2 4 5 9 12 11 10 11 11 11 11 11 11 11 12 13 14 14 14 14 14 12 11 9 10 9 8 8 8
4 5 2 4 2 6 2 2 3 4 1 1 3 3 4 2 4 5 6 8 7 7 8 9 11 12 13 14 13 11 13 13 13 14 13 13 13 12 11 11 9 11 9 8
3 5 6 6 4 3 4 1 1 3 3 3 0 2 5 2 2 5 5 6 6 6 8 12 12 10 10 10 10 11 11 11 11 11 11 11 11 8 7 9 8 7 7 7
4 3 1 5 5 2 3 2 2 6 1 3 1 2 4 3 5 6 7 8 8 7 7 8 7 7 8 8 8 8 8 8 9 9 9 10 10 10 9 9 8 7 7 8
5 5 1 2 2 10 3 6 1 2 2 2 1 3 2 8 9 4 4 4 3 2 5 7 6 6 6 5 5 6 7 8 8 9 9 9 9 9 8 8 9 9 8 9
4 2 2 2 6 3 1 2 5 3 3 1 1 1 1 10 8 4 2 1 2 0 5 7 6 5 5 4 6 6 7 9 9 9 10 9 9 9 9 8 9 9 9 9
2 4 3 3 2 1 1 2 1 2 2 2 3 2 1 5 6 4 3 2 3 1 4 7 7 6 5 5 5 6 7 8 8 9 9 9 9 9 10 10 10 10 10 9
7 3 4 3 3 2 0 2 3 4 1 3 3 3 4 5 6 5 5 5 4 0 4 6 7 7 6 6 6 6 7 8 8 9 10 10 10 11 11 10 10 10 10 11
7 4 2 1 2 2 3 2 3 1 2 3 3 1 8 9 8 8 7 6 2 1 5 6 6 7 7 6 6 6 7 7 8 9 9 10 11 11 10 10 10 11 11 10
3 5 3 3 1 1 3 0 3 3 1 3 3 4 1 10 10 7 7 5 2 2 5 6 7 7 7 6 5 6 7 7 8 10 9 10 10 10 9 9 9 10 12 10
2 4 3 3 2 1 3 3 3 1 2 3 1 3 3 7 10 7 7 5 2 3 5 5 5 5 6 6 6 6 7 7 8 9 9 10 11 10 10 10 9 9 11 12
3 5 2 3 2 1 1 3 2 1 2 1 1 4 7 8 9 8 6 5 1 3 4 3 4 5 5 5 5 6 6 6 7 8 8 10 10 10 10 9 9 9 10 11
6 5 2 3 1 3 3 2 4 4 1 4 0 1 5 7 5 5 2 4 1 1 2 2 3 3 4 5 5 5 6 6 6 7 9 9 10 10 10 9 9 9 8 10
5 5 4 2 1 3 3 4 3 1 1 1 3 6 5 8 7 4 4 3 2 3 3 3 4 4 3 4 5 5 6 5 6 7 8 9 9 9 8 9 9 8 8 8
7 7 2 3 2 3 2 3 3 2 2 2 4 8 9 9 5 4 6 5 4 4 4 5 5 4 2 4 4 5 5 5 7 8 7 7 7 7 9 7 7 7 5 7
2 3 2 3 2 3 3 6 5 2 2 5 6 8 9 5 4 4 6 5 4 4 5 5 5 3 3 1 2 5 5 6 6 6 5 6 6 6 7 6 5 6 5 5
4 5 3 3 2 4 8 6 5 5 4 7 7 8 9 6 6 8 8 5 4 4 5 4 5 4 2 2 1 5 4 5 5 5 5 6 5 4 5 6 5 5 5 5
3 3 2 7 2 2 11 1 3 6 6 6 7 7 10 9 7 10 7 5 3 3 3 4 4 4 3 2 1 4 4 4 4 4 5 5 5 5 5 5 5 4 4 4
2 3 2 3 4 4 7 6 3 7 4 7 7 11 11 11 9 9 6 5 4 4 4 4 5 5 4 3 2 1 2 3 3 4 4 4 4 5 5 4 3 4 3 2
1 6 4 4 4 3 7 11 6 9 6 9 9 9 13 11 11 9 7 6 5 5 4 5 5 5 5 4 4 2 2 2 2 2 3 4 4 5 4 4 4 4 1 4
5 5 4 2 3 3 3 5 12 12 11 11 12 9 7 9 10 9 7 6 6 6 5 5 6 5 5 5 5 4 4 3 3 3 2 3 4 4 4 4 4 6 6 5
Wind_Direction
39 80 35 14 98 112 105 120 123 113 75 62 68 55 33 28 58 69 23 81 116 44 38 25 34 32 24 36 30 21 6 358 351 349 355 351 346 359 32 26 23 19 17 14
87 59 36 70 146 117 111 124 116 90 97 92 86 67 57 35 26 30 38 56 60 50 41 57 56 39 23 13 7 12 11 0 6 355 335 327 333 34 43 24 23 14 8 11
49 4 205 185 143 102 85 139 166 142 125 107 89 61 45 46 45 50 46 41 39 38 29 36 38 27 20 20 11 12 11 12 15 358 351 8 47 42 11 11 10 13 14 20
54 8 121 107 82 24 68 316 177 147 171 117 341 111 45 17 48 47 50 44 41 32 24 25 16 20 20 22 34 45 41 39 38 31 41 42 39 33 10 4 9 8 16 21
51 51 74 75 33 358 27 108 140 119 94 163 40 117 100 23 39 32 32 30 36 37 30 27 25 28 34 39 43 48 49 49 46 49 43 38 38 28 13 7 2 3 3 10
76 131 46 34 51 27 139 97 73 69 95 106 13 292 127 18 329 31 45 40 34 36 39 46 55 51 42 44 46 44 42 42 36 35 34 33 27 11 4 2 357 357 359 360
68 33 48 25 127 94 49 167 169 200 145 46 335 233 75 341 16 11 28 46 40 41 55 56 46 37 35 35 35 36 36 36 29 29 26 21 15 11 7 1 1 355 356 358
118 146 8 355 33 23 56 315 3 292 197 156 107 199 102 351 82 81 68 61 64 59 54 46 35 30 31 33 36 37 37 36 27 23 21 16 13 9 6 4 357 358 355 348
143 119 53 49 54 314 110 60 61 108 39 228 46 154 197 189 154 105 72 60 55 48 47 44 32 28 29 34 42 35 38 36 26 20 12 12 8 4 1 358 353 355 346 341
166 125 13 52 174 64 24 124 202 113 173 243 164 267 224 187 188 122 106 67 76 54 51 43 30 32 32 52 57 45 38 32 22 12 10 8 6 359 353 349 354 351 351 353
136 92 153 243 29 9 111 124 70 93 339 288 275 160 192 193 164 149 134 27 165 118 37 34 25 28 36 49 41 42 30 24 16 11 4 2 357 357 355 353 352 353 352 351
59 105 105 70 42 5 18 77 68 311 151 49 336 72 159 194 151 144 123 117 160 335 28 27 20 14 20 22 29 38 26 17 17 7 2 2 355 356 0 3 3 2 0 357
173 43 120 153 161 141 356 73 97 105 181 162 303 42 136 151 162 180 167 158 167 113 33 26 17 20 13 21 30 30 21 17 14 1 4 11 6 2 5 5 3 2 358 360
98 93 124 220 71 83 149 140 140 70 269 129 240 293 189 189 178 162 164 172 160 22 30 27 19 19 26 31 28 25 23 17 11 5 7 6 1 360 2 6 7 6 8 8
72 100 106 54 269 133 91 126 202 237 346 261 9 235 358 185 169 155 160 174 187 16 26 30 27 24 35 29 20 24 25 20 8 8 9 9 4 2 3 7 9 15 18 10
30 128 139 83 15 207 126 72 94 217 164 260 290 245 30 126 137 154 171 176 233 5 22 36 40 40 32 13 12 21 23 21 9 9 9 8 2 2 7 8 6 11 14 16
74 132 131 125 360 86 222 22 351 154 253 280 302 21 151 153 166 159 163 188 263 7 19 40 51 50 24 17 15 20 17 16 13 3 9 8 4 3 8 6 7 10 12 11
118 96 60 110 162 212 57 332 245 260 235 188 216 134 169 171 160 156 149 156 214 23 38 106 91 87 36 25 25 10 14 18 5 7 7 6 3 2 9 14 14 15 15 16
56 119 99 161 169 322 220 183 190 198 73 169 127 130 128 135 146 157 159 151 101 85 91 115 117 89 56 31 24 7 5 1 353 2 360 4 360 356 3 8 9 12 15 20
65 66 107 159 212 240 101 172 190 174 61 140 153 160 153 163 186 81 168 167 141 111 134 142 139 119 85 51 20 3 5 353 1 359 353 357 2 360 7 358 358 1 10 19
68 39 131 149 218 266 181 163 169 204 84 162 178 173 168 190 63 108 148 143 117 123 149 139 150 133 85 72 10 4 352 10 359 355 359 3 10 8 14 2 0 358 16 29
180 151 159 139 195 263 158 140 216 134 161 176 172 177 177 137 143 150 158 145 146 142 145 160 164 157 171 202 353 6 2 2 4 357 359 4 6 9 8 6 4 3 16 40
202 214 201 211 210 58 192 303 185 178 153 167 163 159 165 157 166 168 165 147 146 138 147 172 189 188 203 175 58 2 14 350 2 356 5 359 350 349 349 340 352 3 4 36
191 177 238 202 164 227 223 222 230 191 148 150 142 153 170 175 178 175 156 148 158 160 178 188 198 212 212 168 155 345 335 340 354 5 7 359 347 346 352 338 331 337 354 16
45 159 165 263 245 266 237 222 201 182 151 143 151 164 173 173 192 176 166 169 178 175 180 199 215 221 212 179 192 193 237 263 318 349 351 346 346 348 349 352 334 330 329 339
190 168 196 236 206 235 242 214 186 178 180 172 162 167 189 191 165 169 172 177 180 186 189 207 216 222 204 196 207 201 213 234 273 281 327 357 331 339 343 347 344 189 259 249